Showing default

SECOR 4 (EGRS 4), 1315

Orbit data source: Space-Track

SECOR 4 (EGRS 4), 1315 is an American payload satellite in LEO that was launched on Sat, 03 Apr 1965 UTC via an ATLAS SLV-3 AGENA D launch vehicle from the Air Force Western Test Range (AFWTR). Payload-class satellites include a variety of spacecraft equipped with specific instruments for various scientific and technological missions. These include communications satellites like Starlink; space stations such as the ISS; scientific satellites like the Hubble; Earth observation satellites from companies like Planet Labs, Umbra, and HawkEye 360; GPS; miniature CubeSats for education and research; and military/defense satellites.

Loading next visibility...
Identifier
1315, 1965-027B
Orbit
LEO
Country
Flag of USUS
Related business
Manufacturer
ITT
Mission
Spacecraft
Bus & Motor
SECOR, Unknown motor
Mass
18 kg wet, 18 kg dry
Launch date (UTC)
1965-04-03 (61 years ago)
Launch vehicle
ATLAS SLV-3 AGENA D
Launch site
Air Force Western Test Range (AFWTR)
Object type
Payload
Rocket body
Debris
Shape & HBR
Unknown
Radar Cross Section
Medium (>0.1 m² and <1 m²)

Expand to show TLE details & history
Last TLE update: 2 days ago

TLE from 2 days ago
0 SECOR 4 (EGRS 4)
1  1315U 65027B   25306.45702323 -.00000024  00000-0 -11635-3 0  9999
2  1315  90.2496  10.4510 0032806  73.5969 312.6705 12.92661260857639
Epoch: 2025-11-02T10:58Z
TLE epoch observation values (Epoch: 2025-11-02T10:58:06.807Z)
Latitude
26.01965°
Longitude
163.82892°
Altitude
1,277.116 km
Speed
7.227 km/s
True Right ascension
00h 41m 19s
True Declination
25° 53' 37"
Sunlit
Object was in full shadow at epoch
Visualization orbit readout
Latitude
Unknown
Longitude
Unknown
Altitude
Unknown
Speed
Unknown
Apparent Right ascension
Unknown
Apparent Declination
Unknown
Sunlit
N/A
Visualization observer readout
Local Sidereal Time
00:30:57
Azimuth
Unknown
Elevation
Unknown
Doppler factor
Unknown
Orbital elements
Apogee altitude
1,313.264 km
Perigee altitude
1,262.964 km
Semi-major axis
7,666.251 km
Eccentricity
0.00328
Inclination
90.2496°
RAAN
10.451°
Arg. of periapsis
73.5969°
True anomaly
312.39332°
Mean anomaly
312.6705°
Eccentric anomaly
312.53199°
Mean motion
3.23347 °/min
Orbital period
111.34 mins
BSTAR
-0.00011635
Loading maneuver chart data...
Computing Atmospheric mass density...
Loading historical data...
Loading historical data...
Loading historical data...
Loading historical data...
Loading historical data...
Loading historical data...
Loading historical data...

Documentation

Showing up to 5 results
|